Home   Weather   Bundi   Past weeks

Flag for India Past Weather in Bundi, Rajasthan, India — Yesterday and Last 2 Weeks

Now
81 °F

Passing clouds.


Feels Like: 84 °F
Forecast: 73 / 94 °F
Wind: No wind

Location: Jaipur / Sanganer

Current Time: Sep 30, 2016 at 5:22:10 AM

Latest Report: Sep 30, 2016 at 5:00 AM


Visibility: 3 mi

Pressure: 29.77 "Hg

Humidity: 70%

Dew Point: 70 °F

Location of BundiLocation

Past Weather in Bundi — Graph

°F

Bundi Temperature Yesterday

Maximum temperature yesterday: 97 °F (at 3:00 PM)
Minimum temperature yesterday: 79 °F (at 5:00 AM)
Average temperature yesterday: 88 °F

High & Low Weather Summary for the Past Weeks

 TemperatureHumidityPressure
High100 °F (Sep 21, 3:30 PM)94% (Sep 24, 1:30 AM)29.86 "Hg (Sep 24, 1:30 AM)
Low72 °F (Sep 24, 1:00 AM)27% (Sep 17, 4:30 PM)29.56 "Hg (Sep 22, 9:00 AM)
Average87 °F55%29.74 "Hg
* Reported Sep 15 4:00 AM — Sep 30 4:00 AM, Bundi, Weather by CustomWeather, © 2016

Note: Actual official high and low records may vary slightly from our data, if they occured in-between our weather recording intervals... More about our weather records

Advertising

Bundi Weather History for the Previous 24 Hours

Scroll right to see more
 ConditionsComfort  
Time TempWeatherWind HumidityBarometerVisibility
4:00 AM
Fri, Sep 30
81 °FPassing clouds.No wind70%29.74 "Hg3 mi
3:00 AM81 °FPassing clouds.No wind70%29.74 "Hg3 mi
2:30 AM81 °FPassing clouds.No wind74%29.74 "Hg3 mi
1:00 AM82 °FPassing clouds.No wind66%29.77 "Hg3 mi
11:30 PM
Thu, Sep 29
82 °FPassing clouds.3 mph66%29.77 "Hg3 mi
11:00 PM84 °FPassing clouds.No wind62%29.77 "Hg3 mi
10:30 PM84 °FPassing clouds.No wind62%29.77 "Hg3 mi
9:30 PM84 °FPassing clouds.2 mph62%29.77 "Hg3 mi
9:00 PM84 °FPassing clouds.6 mph58%29.74 "Hg3 mi
8:30 PM86 °FPassing clouds.7 mph55%29.74 "Hg3 mi
8:00 PM88 °FPassing clouds.2 mph49%29.74 "Hg3 mi
7:30 PM88 °FPassing clouds.No wind46%29.71 "Hg4 mi
7:00 PM90 °FPassing clouds.No wind41%29.71 "Hg4 mi
6:30 PM91 °FScattered clouds.No wind36%29.68 "Hg4 mi
6:00 PM93 °FScattered clouds.5 mph34%29.68 "Hg4 mi
5:30 PM93 °FScattered clouds.7 mph34%29.68 "Hg4 mi
5:00 PM95 °FScattered clouds.6 mph34%29.68 "Hg4 mi
4:00 PM95 °FScattered clouds.7 mph36%29.68 "Hg4 mi
3:30 PM97 °FScattered clouds.6 mph30%29.71 "Hg4 mi
3:00 PM97 °FScattered clouds.3 mph34%29.71 "Hg4 mi
2:30 PM93 °FScattered clouds.6 mph39%29.71 "Hg4 mi
2:00 PM95 °FHaze.5 mph39%29.74 "Hg4 mi
1:30 PM93 °FHaze.6 mph41%29.74 "Hg3 mi
1:00 PM93 °FHaze.6 mph41%29.74 "Hg3 mi
12:30 PM93 °FHaze.7 mph44%29.77 "Hg3 mi
12:00 PM91 °FHaze.6 mph46%29.80 "Hg3 mi
11:30 AM90 °FHaze.8 mph49%29.80 "Hg3 mi
11:00 AM90 °FHaze.6 mph49%29.80 "Hg3 mi
10:30 AM88 °FHaze.7 mph52%29.80 "Hg3 mi
10:00 AM88 °FHaze.7 mph52%29.80 "Hg3 mi
9:00 AM84 °FHaze.13 mph55%29.80 "Hg3 mi
8:30 AM84 °FHaze.9 mph51%29.80 "Hg3 mi
8:00 AM82 °FHaze.8 mph55%29.80 "Hg3 mi
7:30 AM81 °FHaze.6 mph58%29.80 "Hg3 mi
7:00 AM81 °FHaze.5 mph54%29.77 "Hg3 mi
6:00 AM82 °FHaze.5 mph48%29.77 "Hg3 mi
5:30 AM81 °FHaze.2 mph58%29.74 "Hg3 mi
5:00 AM79 °FHaze.No wind65%29.74 "Hg3 mi
Weather by CustomWeather, © 2016

See weather overviewHow to use our weather pages